Regional Weather Roundup
Issued by NWS

Home | Current Version | Previous Version | Graphics & Text | Print | Product List | Glossary On
Versions: 1 2 3 4 5 6 7 8 9 10 11 12 13 14 15 16 17 18 19 20 21 22 23 24 25 26 27 28 29 30 31 32 33 34 35 36 37 38 39 40 41 42 43 44 45 46 47 48 49 50
000
ASUS43 KBIS 160410
RWRND

NORTH DAKOTA REGIONAL WEATHER ROUNDUP
NATIONAL WEATHER SERVICE BISMARCK ND
1000 PM CST SUN JAN 15 2017

NOTE: "FAIR" INDICATES FEW OR NO CLOUDS BELOW 12,000 FEET WITH NO
SIGNIFICANT WEATHER AND/OR OBSTRUCTIONS TO VISIBILITY.


NDZ001>003-009>011-017-160500-
NORTHWEST NORTH DAKOTA

CITY           SKY/WX    TMP DP  RH WIND       PRES   REMARKS
WILLISTON      FAIR      14   5  67 SW6       29.99F WCI   5
MINOT          FAIR      19   9  65 VRB3      29.95R
MINOT AFB      CLOUDY    14   6  71 W5        29.94S WCI   6
$$

NDZ018>021-031>035-040>046-160500-
SOUTHWEST NORTH DAKOTA

CITY           SKY/WX    TMP DP  RH WIND       PRES   REMARKS
BISMARCK       FAIR      -4 -11  72 CALM      30.05S
DICKINSON      FAIR      18   6  59 W10       29.98S WCI   6
GARRISON         N/A      9   4  80 CALM      29.99R
HETTINGER ARPT CLOUDY    11   5  77 NW6       30.03S WCI   1
$$

NDZ004>008-012>016-024-026-027-054-160500-
NORTHEAST NORTH DAKOTA

CITY           SKY/WX    TMP DP  RH WIND       PRES   REMARKS
GRAND FORKS    CLOUDY    12   4  70 S7        30.02S WCI   1
GRND FRKS AFB  CLOUDY    15   5  66 SW9       30.02S WCI   3
DEVILS LAKE    FAIR      12   5  73 SW8       29.99S WCI   0
$$

NDZ022-023-025-028>030-036>039-047>053-160500-
SOUTHEAST NORTH DAKOTA

CITY           SKY/WX    TMP DP  RH WIND       PRES   REMARKS
FARGO          CLOUDY    16  11  80 S9        30.08S WCI   4
JAMESTOWN      FAIR       8   3  80 S3        30.02F
$$




USA.gov is the U.S. government's official web portal to all federal, state and local government web resources and services.